Date,TemperatureHighF,TemperatureAvgF,TemperatureLowF,DewpointHighF,DewpointAvgF,DewpointLowF,HumidityHigh,HumidityAvg,HumidityLow,PressureMaxIn,PressureMinIn,WindSpeedMaxMPH,WindSpeedAvgMPH,GustSpeedMaxMPH,PrecipitationSumIn
2013-2-1,-1.0,-8.5,-21.1,-10.8,-16.5,-29.5,73,67,58,30.33,30.20,18,8,18,0.00
2013-2-2,11.9,0.8,-12.5,1.2,-6.4,-19.8,80,71,57,30.27,30.05,14,5,14,0.00
2013-2-3,9.0,2.4,-7.2,-0.5,-5.0,-13.8,81,71,55,30.10,30.00,22,9,22,0.00
2013-2-4,13.5,-1.2,-18.4,-0.3,-9.9,-26.0,81,66,45,30.16,29.92,14,6,14,0.00
2013-2-5,19.7,10.6,-2.0,12.7,5.0,-8.3,88,78,65,30.15,29.75,21,8,21,0.00
2013-2-6,20.2,10.2,-7.2,17.4,6.1,-13.7,90,83,71,30.23,30.12,12,4,12,0.00
2013-2-7,23.3,20.5,16.2,20.1,17.4,12.0,92,88,82,30.34,30.16,20,9,20,0.00
2013-2-8,26.4,15.2,7.2,15.5,10.0,2.0,89,80,59,30.46,30.34,12,5,12,0.00
2013-2-9,23.8,18.2,7.7,19.4,14.9,3.9,92,87,82,30.36,30.08,25,12,25,0.00
2013-2-10,31.8,26.4,20.8,30.8,24.9,18.8,96,94,92,30.08,29.32,21,6,21,0.00
2013-2-11,30.3,24.9,19.1,29.3,22.5,15.9,96,91,86,29.98,29.31,21,10,21,0.00
2013-2-12,28.1,20.4,15.4,23.0,16.8,11.5,93,86,78,30.01,29.80,20,9,20,0.00
2013-2-13,38.5,26.7,18.3,30.7,23.4,15.3,93,87,71,29.80,29.65,13,7,13,0.06
2013-2-14,29.1,20.8,7.4,23.8,15.7,0.8,91,81,69,30.14,29.68,23,9,23,0.06
2013-2-15,14.3,7.7,1.8,4.1,-0.1,-4.0,86,70,51,30.30,30.14,23,10,23,0.00
2013-2-16,14.3,0.9,-12.0,1.3,-8.4,-18.8,85,66,43,30.28,30.23,13,5,13,0.00
2013-2-17,25.3,7.6,-16.9,11.7,-2.7,-24.3,82,63,48,30.26,29.86,30,14,30,0.00
2013-2-18,31.0,24.8,15.7,25.9,19.5,11.4,90,80,69,29.85,29.53,26,12,26,0.01
2013-2-19,15.6,5.0,-0.6,11.4,-1.9,-7.6,83,73,63,30.35,29.65,31,16,31,0.01
2013-2-20,15.9,7.3,-1.8,5.5,0.9,-8.3,84,75,61,30.55,30.35,17,8,17,0.00
2013-2-21,27.2,11.6,-10.3,14.9,4.9,-16.8,87,75,52,30.59,30.25,21,8,21,0.01
2013-2-22,26.6,21.7,17.3,22.4,18.3,14.1,90,87,80,30.25,29.85,12,6,12,0.01
2013-2-23,32.1,26.1,21.1,26.3,23.1,18.4,96,88,78,29.95,29.82,13,4,13,0.01
2013-2-24,31.9,25.8,12.8,27.8,22.3,8.2,94,87,77,30.13,29.95,9,3,9,0.01
2013-2-25,31.3,20.1,3.7,26.3,15.8,-1.1,94,83,79,30.19,30.12,12,4,12,0.01
2013-2-26,39.1,24.5,6.9,27.6,18.7,2.7,95,79,57,30.17,29.96,27,11,27,0.22
2013-2-27,29.7,28.5,27.3,25.6,24.1,21.5,90,84,76,30.03,29.90,32,18,32,0.22
2013-2-28,27.3,23.1,19.9,23.3,18.1,14.1,89,81,74,30.30,30.03,31,15,31,0.00